AEE377 LGMK-LGAV

Flight info

Callsign AEE377
Flight time 0h 22m
Altitude 12000
Route N0345F120 VARIX
Aircraft A320/M-SDE2GHIJ1RTWY/SB1

Departure

Time 2026-04-22 11:27
Airport Mykonos Island National Airport (LGMK)

Arrival

Time 2026-04-22 11:49
Airport Athens Eleftherios Venizelos International Airport (LGAV)
Time Latitude Longitude Altitude Speed Heading
2026-04-22 11:01 37.43505 25.34638 407 ft 0 kts 250°
2026-04-22 11:19 37.43506 25.34640 407 ft 2 kts 251°
2026-04-22 11:19 37.43512 25.34671 403 ft 4 kts 272°
2026-04-22 11:20 37.43505 25.34701 407 ft 4 kts 311°
2026-04-22 11:20 37.43484 25.34720 408 ft 4 kts 339°
2026-04-22 11:20 37.43477 25.34723 408 ft 0 kts 341°
2026-04-22 11:22 37.43493 25.34716 406 ft 5 kts 341°
2026-04-22 11:23 37.43531 25.34699 408 ft 7 kts 341°
2026-04-22 11:23 37.43583 25.34677 408 ft 9 kts 341°
2026-04-22 11:23 37.43643 25.34692 409 ft 9 kts 28°
2026-04-22 11:23 37.43695 25.34730 411 ft 9 kts 19°
2026-04-22 11:24 37.43761 25.34713 411 ft 11 kts 340°
2026-04-22 11:24 37.43837 25.34678 410 ft 12 kts 341°
2026-04-22 11:24 37.43924 25.34641 411 ft 14 kts 341°
2026-04-22 11:24 37.44029 25.34594 409 ft 18 kts 340°
2026-04-22 11:25 37.44151 25.34540 405 ft 16 kts 340°
2026-04-22 11:25 37.44249 25.34466 405 ft 15 kts 314°
2026-04-22 11:25 37.44290 25.34470 403 ft 6 kts 116°
2026-04-22 11:25 37.44271 25.34487 403 ft 0 kts 160°
2026-04-22 11:26 37.44259 25.34493 405 ft 9 kts 160°
2026-04-22 11:26 37.43943 25.34632 411 ft 85 kts 161°
2026-04-22 11:26 37.43177 25.34971 413 ft 145 kts 161°
2026-04-22 11:26 37.42172 25.35406 887 ft 155 kts 162°
2026-04-22 11:27 37.41155 25.35839 1670 ft 153 kts 163°
2026-04-22 11:27 37.40153 25.36279 2167 ft 159 kts 163°
2026-04-22 11:27 37.39044 25.36770 2425 ft 180 kts 163°
2026-04-22 11:27 37.37787 25.37312 2686 ft 203 kts 168°
2026-04-22 11:28 37.36339 25.37275 2972 ft 220 kts 203°
2026-04-22 11:28 37.35109 25.36060 3342 ft 238 kts 240°
2026-04-22 11:28 37.34708 25.33994 3899 ft 253 kts 270°
2026-04-22 11:28 37.34769 25.31766 4809 ft 257 kts 274°
2026-04-22 11:29 37.34908 25.29515 5726 ft 260 kts 275°
2026-04-22 11:29 37.35064 25.27281 6654 ft 261 kts 275°
2026-04-22 11:29 37.35218 25.25008 7535 ft 261 kts 274°
2026-04-22 11:29 37.35363 25.22721 8400 ft 264 kts 274°
2026-04-22 11:30 37.35499 25.20411 9262 ft 266 kts 274°
2026-04-22 11:30 37.35629 25.18089 10099 ft 267 kts 274°
2026-04-22 11:30 37.35758 25.15686 10483 ft 286 kts 274°
2026-04-22 11:30 37.35893 25.13092 10698 ft 308 kts 274°
2026-04-22 11:31 37.36036 25.10352 11199 ft 319 kts 274°
2026-04-22 11:31 37.36178 25.07592 11771 ft 323 kts 274°
2026-04-22 11:31 37.36343 25.04772 11950 ft 326 kts 277°
2026-04-22 11:31 37.36811 25.01891 11978 ft 346 kts 286°
2026-04-22 11:32 37.37576 24.98999 11975 ft 350 kts 288°
2026-04-22 11:32 37.38351 24.96094 11981 ft 351 kts 288°
2026-04-22 11:32 37.39123 24.93182 11991 ft 351 kts 288°
2026-04-22 11:32 37.39894 24.90273 11976 ft 351 kts 288°
2026-04-22 11:33 37.40652 24.87400 11966 ft 351 kts 287°
2026-04-22 11:33 37.41420 24.84483 11972 ft 351 kts 288°
2026-04-22 11:33 37.42188 24.81571 11976 ft 351 kts 288°
2026-04-22 11:33 37.42958 24.78662 11973 ft 351 kts 288°
2026-04-22 11:34 37.43730 24.75750 11974 ft 351 kts 288°
2026-04-22 11:34 37.44501 24.72838 11973 ft 351 kts 288°
2026-04-22 11:34 37.45269 24.69925 11973 ft 351 kts 287°
2026-04-22 11:34 37.46032 24.67010 11973 ft 351 kts 287°
2026-04-22 11:35 37.46786 24.64129 11973 ft 351 kts 287°
2026-04-22 11:35 37.47551 24.61214 11973 ft 351 kts 287°
2026-04-22 11:35 37.48314 24.58299 11973 ft 351 kts 287°
2026-04-22 11:35 37.49077 24.55383 11971 ft 351 kts 287°
2026-04-22 11:36 37.49840 24.52460 11972 ft 351 kts 287°
2026-04-22 11:36 37.50602 24.49538 11984 ft 351 kts 287°
2026-04-22 11:36 37.51364 24.46623 12027 ft 350 kts 287°
2026-04-22 11:36 37.52125 24.43705 11988 ft 351 kts 287°
2026-04-22 11:37 37.52883 24.40786 11982 ft 350 kts 287°
2026-04-22 11:37 37.53626 24.37912 11978 ft 350 kts 287°
2026-04-22 11:37 37.54379 24.34999 11976 ft 350 kts 287°
2026-04-22 11:37 37.55127 24.32085 11975 ft 349 kts 285°
2026-04-22 11:38 37.55579 24.29119 11809 ft 339 kts 275°
2026-04-22 11:38 37.55583 24.26205 11556 ft 327 kts 267°
2026-04-22 11:38 37.55293 24.20674 11056 ft 308 kts 268°
2026-04-22 11:39 37.55170 24.18025 10810 ft 306 kts 268°
2026-04-22 11:39 37.55052 24.15375 10439 ft 301 kts 268°
2026-04-22 11:39 37.54938 24.12802 10344 ft 287 kts 268°
2026-04-22 11:39 37.54827 24.10341 10236 ft 276 kts 268°
2026-04-22 11:40 37.54798 24.07963 10044 ft 268 kts 277°
2026-04-22 11:40 37.55278 24.05734 9978 ft 264 kts 293°
2026-04-22 11:40 37.56256 24.03778 9669 ft 269 kts 309°
2026-04-22 11:40 37.57645 24.02161 9279 ft 270 kts 316°
2026-04-22 11:41 37.59051 24.00608 8916 ft 268 kts 316°
2026-04-22 11:41 37.60429 23.99069 8533 ft 268 kts 316°
2026-04-22 11:41 37.61819 23.97507 8122 ft 266 kts 316°
2026-04-22 11:41 37.63197 23.95953 7568 ft 266 kts 316°
2026-04-22 11:42 37.64569 23.94404 6960 ft 264 kts 316°
2026-04-22 11:42 37.65935 23.92856 6367 ft 263 kts 316°
2026-04-22 11:42 37.67298 23.91318 5724 ft 262 kts 317°
2026-04-22 11:42 37.68658 23.89780 5086 ft 262 kts 317°
2026-04-22 11:43 37.70015 23.88246 4559 ft 258 kts 317°
2026-04-22 11:43 37.71298 23.86797 4355 ft 242 kts 317°
2026-04-22 11:43 37.72501 23.85437 4251 ft 222 kts 317°
2026-04-22 11:43 37.73635 23.84157 4148 ft 218 kts 317°
2026-04-22 11:44 37.74755 23.82888 4037 ft 214 kts 317°
2026-04-22 11:44 37.75850 23.81648 3947 ft 206 kts 317°
2026-04-22 11:44 37.76886 23.80472 3874 ft 196 kts 318°
2026-04-22 11:44 37.78094 23.79702 3800 ft 199 kts 349°
2026-04-22 11:45 37.79461 23.79917 3643 ft 201 kts 23°
2026-04-22 11:45 37.80633 23.80919 3217 ft 207 kts 37°
2026-04-22 11:45 37.81751 23.82009 2906 ft 204 kts 36°
2026-04-22 11:45 37.82849 23.83061 2638 ft 192 kts 37°
2026-04-22 11:46 37.83882 23.84040 2363 ft 178 kts 37°
2026-04-22 11:46 37.84804 23.84914 2140 ft 156 kts 38°
2026-04-22 11:46 37.85649 23.85716 1929 ft 148 kts 37°
2026-04-22 11:46 37.86463 23.86485 1729 ft 145 kts 37°
2026-04-22 11:47 37.87265 23.87248 1529 ft 143 kts 39°
2026-04-22 11:47 37.88062 23.88000 1358 ft 143 kts 38°
2026-04-22 11:47 37.88842 23.88744 1162 ft 143 kts 39°
2026-04-22 11:47 37.89626 23.89494 958 ft 141 kts 38°
2026-04-22 11:48 37.90399 23.90230 789 ft 138 kts 40°
2026-04-22 11:48 37.91163 23.90954 630 ft 136 kts 40°
2026-04-22 11:48 37.91928 23.91672 437 ft 136 kts 40°
2026-04-22 11:48 37.92680 23.92386 307 ft 130 kts 40°
2026-04-22 11:49 37.93282 23.92968 290 ft 85 kts 36°
2026-04-22 11:49 37.93614 23.93283 290 ft 38 kts 37°
2026-04-22 11:49 37.93811 23.93476 293 ft 34 kts 43°
2026-04-22 11:49 37.93934 23.93701 297 ft 21 kts 65°
2026-04-22 11:50 37.93959 23.93782 297 ft 6 kts 82°
2026-04-22 11:50 37.93941 23.93823 299 ft 5 kts 114°
2026-04-22 11:50 37.93944 23.93870 302 ft 6 kts 67°
2026-04-22 11:50 37.93987 23.93915 300 ft 10 kts 36°
2026-04-22 11:51 37.94056 23.93981 302 ft 15 kts 37°
2026-04-22 11:51 37.94149 23.94069 304 ft 19 kts 37°
2026-04-22 11:51 37.94266 23.94181 303 ft 23 kts 37°
2026-04-22 11:51 37.94407 23.94315 304 ft 27 kts 36°
2026-04-22 11:52 37.94561 23.94459 303 ft 25 kts 37°
2026-04-22 11:52 37.94679 23.94574 302 ft 16 kts 52°
2026-04-22 11:52 37.94640 23.94704 302 ft 18 kts 129°
2026-04-22 11:52 37.94558 23.94840 301 ft 21 kts 127°
2026-04-22 11:53 37.94468 23.94992 301 ft 23 kts 127°
2026-04-22 11:53 37.94369 23.95157 304 ft 24 kts 127°
2026-04-22 11:53 37.94267 23.95329 303 ft 24 kts 126°
2026-04-22 11:53 37.94193 23.95452 303 ft 12 kts 127°
2026-04-22 11:54 37.94140 23.95466 301 ft 9 kts 216°
2026-04-22 11:54 37.94096 23.95423 301 ft 4 kts 217°
2026-04-22 11:54 37.94089 23.95416 300 ft 0 kts 217°